• In Hungary
  • List of Countries
  • For 7 days
  • Water Temperature
  • Satellite Maps
  • Weather Map
  • News
  • Weather Widgets
  • user-avatar
    Login

    Hourly Weather SanFrancisco

    Today, 16 December, Saturday

    Time Temperature Precipitation Wind Pressure Humidity
    00:00 +25°C° 0 mm 3 mps 738 mmHg 74%
    01:00 +25°C° 0 mm 3 mps 738 mmHg 77%
    02:00 +24°C° 0 mm 3 mps 738 mmHg 80%
    03:00 +24°C° 0.1 mm 2 mps 738 mmHg 83%
    04:00 +24°C° 0.1 mm 2 mps 738 mmHg 86%
    05:00 +23°C° 0.1 mm 2 mps 738 mmHg 89%
    06:00 +24°C° 0 mm 3 mps 738 mmHg 86%
    07:00 +25°C° 0 mm 3 mps 739 mmHg 82%
    08:00 +26°C° 0 mm 3 mps 739 mmHg 78%
    09:00 +28°C° 0 mm 4 mps 739 mmHg 68%
    10:00 +30°C° 0 mm 4 mps 739 mmHg 58%
    11:00 +33°C° 0 mm 4 mps 739 mmHg 48%
    12:00 +34°C° 0 mm 4 mps 738 mmHg 43%
    13:00 +35°C° 0 mm 4 mps 738 mmHg 39%
    14:00 +36°C° 0 mm 4 mps 737 mmHg 34%
    15:00 +35°C° 0 mm 4 mps 736 mmHg 35%
    16:00 +35°C° 0 mm 4 mps 736 mmHg 35%
    17:00 +34°C° 0 mm 4 mps 735 mmHg 36%
    18:00 +31°C° 0 mm 3 mps 735 mmHg 43%
    19:00 +29°C° 0 mm 3 mps 736 mmHg 50%
    20:00 +27°C° 0 mm 3 mps 736 mmHg 57%
    21:00 +27°C° 0 mm 3 mps 736 mmHg 62%
    22:00 +26°C° 0 mm 3 mps 736 mmHg 67%
    23:00 +26°C° 0 mm 3 mps 737 mmHg 72%

    Tomorrow, 17 December, Sunday

    Time Temperature Precipitation Wind Pressure Humidity
    00:00 +25°C° 0 mm 3 mps 737 mmHg 74%
    01:00 +25°C° 0 mm 3 mps 737 mmHg 77%
    02:00 +25°C° 0 mm 3 mps 737 mmHg 80%
    03:00 +24°C° 0 mm 3 mps 737 mmHg 83%
    04:00 +24°C° 0 mm 3 mps 737 mmHg 85%
    05:00 +24°C° 0 mm 2 mps 737 mmHg 88%
    06:00 +24°C° 0 mm 3 mps 737 mmHg 84%
    07:00 +25°C° 0 mm 3 mps 738 mmHg 80%
    08:00 +26°C° 0 mm 4 mps 739 mmHg 76%
    09:00 +28°C° 0 mm 4 mps 739 mmHg 66%
    10:00 +30°C° 0 mm 4 mps 739 mmHg 56%
    11:00 +33°C° 0 mm 4 mps 739 mmHg 45%
    12:00 +34°C° 0 mm 4 mps 738 mmHg 43%
    13:00 +35°C° 0 mm 4 mps 737 mmHg 40%
    14:00 +36°C° 0 mm 3 mps 736 mmHg 38%
    15:00 +35°C° 0 mm 3 mps 736 mmHg 41%
    16:00 +34°C° 0 mm 3 mps 736 mmHg 43%
    17:00 +33°C° 0 mm 3 mps 735 mmHg 46%
    18:00 +31°C° 0.1 mm 3 mps 736 mmHg 54%
    19:00 +29°C° 0.1 mm 3 mps 736 mmHg 61%
    20:00 +27°C° 0.1 mm 3 mps 736 mmHg 69%
    21:00 +27°C° 0 mm 3 mps 737 mmHg 71%
    22:00 +26°C° 0 mm 3 mps 737 mmHg 73%
    23:00 +26°C° 0 mm 3 mps 737 mmHg 75%

    Day after tomorrow, 18 December, Monday

    Time Temperature Precipitation Wind Pressure Humidity
    00:00 +25°C° 0 mm 3 mps 737 mmHg 77%
    01:00 +25°C° 0 mm 3 mps 737 mmHg 79%
    02:00 +25°C° 0 mm 3 mps 737 mmHg 81%
    03:00 +24°C° 0 mm 3 mps 737 mmHg 84%
    04:00 +24°C° 0 mm 3 mps 737 mmHg 86%
    05:00 +24°C° 0 mm 3 mps 737 mmHg 88%
    06:00 +25°C° 0 mm 3 mps 737 mmHg 84%
    07:00 +25°C° 0 mm 3 mps 738 mmHg 81%
    08:00 +26°C° 0 mm 4 mps 739 mmHg 78%
    09:00 +28°C° 0 mm 4 mps 739 mmHg 69%
    10:00 +30°C° 0 mm 4 mps 739 mmHg 59%
    11:00 +33°C° 0 mm 4 mps 739 mmHg 50%
    12:00 +34°C° 0 mm 4 mps 738 mmHg 47%
    13:00 +35°C° 0 mm 4 mps 737 mmHg 44%
    14:00 +35°C° 0 mm 4 mps 737 mmHg 40%
    15:00 +35°C° 0 mm 4 mps 736 mmHg 43%
    16:00 +34°C° 0 mm 4 mps 736 mmHg 45%
    17:00 +33°C° 0 mm 4 mps 735 mmHg 47%
    18:00 +32°C° 0 mm 4 mps 736 mmHg 54%
    19:00 +29°C° 0 mm 3 mps 736 mmHg 60%
    20:00 +28°C° 0 mm 3 mps 737 mmHg 67%
    21:00 +27°C° 0 mm 3 mps 737 mmHg 69%
    22:00 +26°C° 0 mm 3 mps 737 mmHg 72%
    23:00 +26°C° 0 mm 3 mps 738 mmHg 74%

    19 December, Tuesday

    Time Temperature Precipitation Wind Pressure Humidity
    00:00 +25°C° 0 mm 3 mps 738 mmHg 77%
    01:00 +25°C° 0 mm 3 mps 737 mmHg 80%
    02:00 +25°C° 0 mm 3 mps 737 mmHg 82%
    03:00 +24°C° 0 mm 3 mps 737 mmHg 84%
    04:00 +24°C° 0 mm 3 mps 737 mmHg 86%
    05:00 +24°C° 0 mm 3 mps 737 mmHg 88%
    06:00 +25°C° 0 mm 3 mps 738 mmHg 85%
    07:00 +25°C° 0 mm 3 mps 738 mmHg 82%
    08:00 +26°C° 0 mm 3 mps 739 mmHg 78%
    09:00 +28°C° 0 mm 4 mps 739 mmHg 68%
    10:00 +30°C° 0 mm 4 mps 739 mmHg 57%
    11:00 +34°C° 0 mm 4 mps 739 mmHg 46%
    12:00 +34°C° 0 mm 4 mps 738 mmHg 44%
    13:00 +35°C° 0 mm 4 mps 737 mmHg 43%
    14:00 +36°C° 0 mm 4 mps 736 mmHg 41%
    15:00 +35°C° 0 mm 4 mps 736 mmHg 43%
    16:00 +34°C° 0 mm 4 mps 735 mmHg 44%
    17:00 +34°C° 0 mm 3 mps 735 mmHg 46%
    18:00 +31°C° 0 mm 3 mps 735 mmHg 53%
    19:00 +29°C° 0 mm 3 mps 736 mmHg 60%
    20:00 +28°C° 0 mm 3 mps 736 mmHg 67%
    21:00 +27°C° 0 mm 3 mps 736 mmHg 70%
    22:00 +27°C° 0 mm 3 mps 737 mmHg 72%
    23:00 +26°C° 0 mm 3 mps 737 mmHg 74%

    20 December, Wednesday

    Time Temperature Precipitation Wind Pressure Humidity
    00:00 +26°C° 0 mm 3 mps 737 mmHg 76%
    01:00 +25°C° 0 mm 3 mps 737 mmHg 77%
    02:00 +25°C° 0 mm 4 mps 737 mmHg 79%
    03:00 +25°C° 0 mm 3 mps 737 mmHg 82%
    04:00 +24°C° 0 mm 3 mps 737 mmHg 85%
    05:00 +24°C° 0 mm 3 mps 737 mmHg 88%
    06:00 +24°C° 0 mm 3 mps 737 mmHg 85%
    07:00 +25°C° 0 mm 4 mps 738 mmHg 81%
    08:00 +26°C° 0 mm 4 mps 738 mmHg 78%
    09:00 +27°C° 0 mm 4 mps 738 mmHg 70%
    10:00 +29°C° 0 mm 4 mps 738 mmHg 62%
    11:00 +32°C° 0 mm 4 mps 738 mmHg 55%
    12:00 +33°C° 0 mm 4 mps 737 mmHg 50%
    13:00 +34°C° 0 mm 4 mps 736 mmHg 45%
    14:00 +35°C° 0 mm 3 mps 736 mmHg 40%
    15:00 +35°C° 0 mm 3 mps 735 mmHg 41%
    16:00 +34°C° 0 mm 3 mps 735 mmHg 42%
    17:00 +34°C° 0 mm 3 mps 734 mmHg 43%
    18:00 +31°C° 0 mm 3 mps 735 mmHg 51%
    19:00 +30°C° 0 mm 3 mps 735 mmHg 58%
    20:00 +28°C° 0 mm 3 mps 736 mmHg 65%
    21:00 +27°C° 0 mm 4 mps 736 mmHg 68%
    22:00 +27°C° 0 mm 4 mps 736 mmHg 71%
    23:00 +26°C° 0 mm 4 mps 736 mmHg 74%

    21 December, Thursday

    Time Temperature Precipitation Wind Pressure Humidity
    00:00 +26°C° 0 mm 4 mps 736 mmHg 76%
    01:00 +25°C° 0 mm 4 mps 736 mmHg 78%
    02:00 +25°C° 0 mm 4 mps 736 mmHg 80%
    03:00 +25°C° 0 mm 3 mps 736 mmHg 82%
    04:00 +24°C° 0 mm 3 mps 736 mmHg 84%
    05:00 +24°C° 0 mm 3 mps 736 mmHg 86%
    06:00 +25°C° 0 mm 3 mps 737 mmHg 83%
    07:00 +26°C° 0 mm 4 mps 737 mmHg 80%
    08:00 +26°C° 0 mm 4 mps 738 mmHg 77%
    09:00 +28°C° 0 mm 4 mps 738 mmHg 68%
    10:00 +30°C° 0 mm 4 mps 738 mmHg 59%
    11:00 +33°C° 0 mm 4 mps 738 mmHg 50%
    12:00 +34°C° 0 mm 4 mps 737 mmHg 47%
    13:00 +35°C° 0 mm 4 mps 737 mmHg 44%
    14:00 +35°C° 0 mm 4 mps 736 mmHg 41%
    15:00 +35°C° 0 mm 3 mps 735 mmHg 42%
    16:00 +34°C° 0 mm 3 mps 735 mmHg 44%
    17:00 +34°C° 0 mm 3 mps 735 mmHg 45%
    18:00 +31°C° 0.1 mm 3 mps 735 mmHg 52%
    19:00 +29°C° 0.1 mm 3 mps 736 mmHg 59%
    20:00 +28°C° 0.1 mm 4 mps 736 mmHg 67%
    21:00 +27°C° 0 mm 4 mps 736 mmHg 69%
    22:00 +27°C° 0 mm 4 mps 737 mmHg 72%
    23:00 +26°C° 0 mm 4 mps 737 mmHg 74%
    Show more